Weather History for Orr, MN

Change the Weather History Date:

Friday, December 13, 2013

  Actual Average Record
Temperature  
Mean Temperature -8 °F -  
Max Temperature -4 °F 22 °F 39 °F (1998)
Min Temperature -13 °F 7 °F -25 °F (2010)
Degree Days  
Heating Degree Days 74    
Moisture  
Dew Point -18 °F    
Average Humidity 65    
Maximum Humidity 77    
Minimum Humidity 46    
Precipitation  
Precipitation 0.00 in - - ()
Sea Level Pressure  
Sea Level Pressure 30.27 in    
Wind  
Wind Speed 0 mph (NNE)    
Max Wind Speed 5 mph    
Max Gust Speed -    
Visibility 10 miles    
Events      
Averages and records for this station are not official NWS values.
T = Trace of Precipitation, MM = Missing Value Source: NWS Daily Summary

Daily Weather History Graph

Daily Weather History Graph

Search for Another Location

Airport:

Trip Planner

Search our weather history database for the weather conditions in past years. The results will help you decide how hot, cold, wet, or windy it might be!

Date:

Astronomy

Dec. 13, 2013 Rise Set
Actual Time 7:53 AM CST 4:18 PM CST
Civil Twilight 7:16 AM CST 4:54 PM CST
Nautical Twilight 6:37 AM CST 5:34 PM CST
Astronomical Twilight 5:59 AM CST 6:11 PM CST
Moon 2:12 PM CST (12/13) 4:04 AM CST (12/13)
Length of Visible Light 9h 37m
Length of Day
8h 25m
Waxing Gibbous, 88% of the Moon is Illuminated
Dec 13
Waxing Gibbous
Dec 17
Full
Dec 25
Last Quarter
Jan 1
New
Jan 7
First Quarter

Hourly Weather History & Observations

Time (CST) Temp. Windchill Dew Point Humidity Pressure Visibility Wind Dir Wind Speed Gust Speed Precip Events Conditions
12:13 AM -7.6 °F - -14.8 °F 71% 30.16 in 10.0 mi Calm Calm - N/A   Clear
12:33 AM -7.6 °F - -14.8 °F 71% 30.16 in 10.0 mi Calm Calm - N/A   Scattered Clouds
12:53 AM -7.6 °F - -14.8 °F 71% 30.17 in 10.0 mi Calm Calm - N/A   Scattered Clouds
1:13 AM -7.6 °F - -16.6 °F 65% 30.17 in 10.0 mi Calm Calm - N/A   Clear
1:33 AM -7.6 °F - -14.8 °F 71% 30.17 in 10.0 mi Calm Calm - N/A   Scattered Clouds
1:53 AM -9.4 °F - -16.6 °F 71% 30.18 in 10.0 mi Calm Calm - N/A   Clear
2:13 AM -9.4 °F - -16.6 °F 71% 30.18 in 10.0 mi Calm Calm - N/A   Clear
2:33 AM -9.4 °F - -16.6 °F 71% 30.19 in 10.0 mi Calm Calm - N/A   Clear
2:53 AM -9.4 °F - -16.6 °F 71% 30.20 in 10.0 mi Calm Calm - N/A   Clear
3:13 AM -9.4 °F - -16.6 °F 71% 30.20 in 10.0 mi Calm Calm - N/A   Clear
3:33 AM -9.4 °F - -16.6 °F 71% 30.20 in 10.0 mi Calm Calm - N/A   Clear
3:53 AM -9.4 °F - -16.6 °F 71% 30.20 in 10.0 mi Calm Calm - N/A   Clear
4:13 AM -9.4 °F - -16.6 °F 71% 30.20 in 10.0 mi Calm Calm - N/A   Clear
4:33 AM -9.4 °F - -16.6 °F 71% 30.21 in 10.0 mi Calm Calm - N/A   Clear
4:53 AM -9.4 °F - -16.6 °F 71% 30.20 in 10.0 mi Calm Calm - N/A   Mostly Cloudy
5:13 AM -9.4 °F - -16.6 °F 71% 30.21 in 10.0 mi Calm Calm - N/A   Overcast
5:33 AM -9.4 °F - -16.6 °F 71% 30.20 in 10.0 mi Calm Calm - N/A   Overcast
5:53 AM -11.2 °F - -18.4 °F 70% 30.21 in 10.0 mi Calm Calm - N/A   Mostly Cloudy
6:13 AM -11.2 °F - -18.4 °F 70% 30.22 in 10.0 mi Calm Calm - N/A   Overcast
6:33 AM -11.2 °F - -18.4 °F 70% 30.23 in 10.0 mi Calm Calm - N/A   Overcast
6:53 AM -13.0 °F - -18.4 °F 77% 30.24 in 10.0 mi Calm Calm - N/A   Overcast
7:13 AM -13.0 °F - -18.4 °F 77% 30.24 in 10.0 mi Calm Calm - N/A   Mostly Cloudy
7:33 AM -13.0 °F - -20.2 °F 70% 30.24 in 10.0 mi Calm Calm - N/A   Scattered Clouds
7:53 AM -13.0 °F - -20.2 °F 70% 30.24 in 10.0 mi Calm Calm - N/A   Clear
8:13 AM -13.0 °F - -20.2 °F 70% 30.25 in 10.0 mi Calm Calm - N/A   Clear
8:33 AM -13.0 °F - -20.2 °F 70% 30.25 in 10.0 mi Calm Calm - N/A   Scattered Clouds
8:53 AM -13.0 °F - -20.2 °F 70% 30.26 in 10.0 mi Calm Calm - N/A   Scattered Clouds
9:13 AM -11.2 °F -20.6 °F -20.2 °F 64% 30.26 in 10.0 mi NNE 3.5 mph - N/A   Scattered Clouds
9:33 AM -11.2 °F -20.6 °F -20.2 °F 64% 30.26 in 10.0 mi NNE 3.5 mph - N/A   Clear
9:53 AM -11.2 °F - -20.2 °F 64% 30.28 in 10.0 mi Calm Calm - N/A   Clear
10:13 AM -11.2 °F - -20.2 °F 64% 30.28 in 10.0 mi Calm Calm - N/A   Clear
10:33 AM -9.4 °F -18.6 °F -20.2 °F 59% 30.29 in 10.0 mi NE 3.5 mph - N/A   Clear
10:53 AM -9.4 °F - -20.2 °F 59% 30.29 in 10.0 mi Calm Calm - N/A   Clear
11:13 AM -9.4 °F - -20.2 °F 59% 30.29 in 10.0 mi Calm Calm - N/A   Clear
11:33 AM -9.4 °F - -20.2 °F 59% 30.29 in 10.0 mi Calm Calm - N/A   Scattered Clouds
11:53 AM -7.6 °F - -20.2 °F 54% 30.28 in 10.0 mi Calm Calm - N/A   Scattered Clouds
12:13 PM -7.6 °F -16.5 °F -20.2 °F 54% 30.28 in 10.0 mi North 3.5 mph - N/A   Clear
12:33 PM -7.6 °F - -20.2 °F 54% 30.28 in 10.0 mi Calm Calm - N/A   Mostly Cloudy
12:53 PM -7.6 °F - -20.2 °F 54% 30.28 in 10.0 mi Calm Calm - N/A   Scattered Clouds
1:13 PM -5.8 °F -16.7 °F -20.2 °F 50% 30.28 in 10.0 mi NE 4.6 mph - N/A   Clear
1:33 PM -4.0 °F - -20.2 °F 46% 30.27 in 10.0 mi Calm Calm - N/A   Clear
1:53 PM -5.8 °F - -18.4 °F 55% 30.27 in 10.0 mi Calm Calm - N/A   Clear
2:13 PM -5.8 °F - -18.4 °F 55% 30.27 in 10.0 mi Calm Calm - N/A   Clear
2:33 PM -5.8 °F - -18.4 °F 55% 30.28 in 10.0 mi Calm Calm - N/A   Mostly Cloudy
2:53 PM -7.6 °F - -18.4 °F 59% 30.28 in 10.0 mi Calm Calm - N/A   Overcast
3:13 PM -7.6 °F - -18.4 °F 59% 30.29 in 10.0 mi Calm Calm - N/A   Scattered Clouds
3:33 PM -7.6 °F - -18.4 °F 59% 30.30 in 10.0 mi Calm Calm - N/A   Scattered Clouds
3:53 PM -7.6 °F - -18.4 °F 59% 30.30 in 10.0 mi Calm Calm - N/A   Mostly Cloudy
4:13 PM -7.6 °F - -18.4 °F 59% 30.30 in 10.0 mi Calm Calm - N/A   Overcast
4:33 PM -7.6 °F - -18.4 °F 59% 30.31 in 10.0 mi Calm Calm - N/A   Overcast
4:53 PM -7.6 °F - -18.4 °F 59% 30.31 in 10.0 mi Calm Calm - N/A   Overcast
5:13 PM -7.6 °F - -18.4 °F 59% 30.32 in 10.0 mi Calm Calm - N/A   Overcast
5:33 PM -7.6 °F - -18.4 °F 59% 30.32 in 10.0 mi Calm Calm - N/A   Overcast
5:51 PM -7.6 °F - -18.4 °F 59% 30.32 in 10.0 mi Calm Calm - N/A   Overcast
6:13 PM -9.4 °F - -18.4 °F 65% 30.33 in 10.0 mi Calm Calm - N/A   Overcast
6:33 PM -9.4 °F - -18.4 °F 65% 30.33 in 10.0 mi Calm Calm - N/A   Overcast
6:53 PM -9.4 °F - -18.4 °F 65% 30.33 in 10.0 mi Calm Calm - N/A   Overcast
7:13 PM -9.4 °F - -18.4 °F 65% - 10.0 mi Calm Calm - N/A   Overcast
7:33 PM -9.4 °F - -18.4 °F 65% 30.34 in 10.0 mi Calm Calm - N/A   Overcast
7:50 PM -9.4 °F - -18.4 °F 65% 30.34 in 10.0 mi Calm Calm - N/A   Overcast
7:54 PM -9.4 °F - -18.4 °F 65% 30.34 in 10.0 mi Calm Calm - N/A   Unknown
8:13 PM -9.4 °F - -18.4 °F 65% 30.34 in 10.0 mi Calm Calm - N/A   Overcast
8:33 PM -9.4 °F - -18.4 °F 65% 30.34 in 10.0 mi Calm Calm - N/A   Overcast
8:53 PM -9.4 °F - -18.4 °F 65% 30.34 in 10.0 mi Calm Calm - N/A   Overcast
9:13 PM -9.4 °F - -18.4 °F 65% 30.34 in 10.0 mi Calm Calm - N/A   Overcast
9:33 PM -7.6 °F - -16.6 °F 65% 30.33 in 10.0 mi Calm Calm - N/A   Overcast
9:53 PM -7.6 °F - -16.6 °F 65% 30.33 in 10.0 mi Calm Calm - N/A   Overcast
10:13 PM -7.6 °F - -16.6 °F 65% 30.33 in 10.0 mi Calm Calm - N/A   Overcast
10:33 PM -7.6 °F - -16.6 °F 65% 30.33 in 10.0 mi Calm Calm - N/A   Overcast
10:53 PM -7.6 °F - -16.6 °F 65% 30.33 in 10.0 mi Calm Calm - N/A   Overcast
11:13 PM -7.6 °F - -16.6 °F 65% 30.32 in 10.0 mi Calm Calm - N/A   Scattered Clouds
11:33 PM -7.6 °F - -16.6 °F 65% 30.32 in 10.0 mi Calm Calm - N/A   Scattered Clouds
11:53 PM -7.6 °F - -16.6 °F 65% 30.31 in 10.0 mi Calm Calm - N/A   Scattered Clouds